Home > Weather > Koudougou > Past weeks

Flag for Burkina Faso Past Weather in Koudougou, Burkina Faso — Yesterday and Last 2 Weeks

Now
81 °F

Passing clouds.


Feels Like: 86 °F
Forecast: 75 / 96 °F
Wind: No wind

Location: Ouagadougou Airport

Current Time: Jul 2, 2016 at 3:53:21 AM

Latest Report: Jul 2, 2016 at 3:00 AM


Visibility: N/A

Pressure: 29.95 "Hg

Humidity: 84%

Dew Point: 75 °F

Location of KoudougouLocation

Past Weather in Koudougou — Graph

°F

Koudougou Temperature Yesterday

Maximum temperature yesterday: 95 °F (at 3:00 PM)
Minimum temperature yesterday: 79 °F (at 5:00 AM)
Average temperature yesterday: 86 °F

High & Low Weather Summary for the Past Weeks

 TemperatureHumidityPressure
High95 °F (Jun 19, 2:00 PM)100% (Jun 17, 6:00 AM)30.07 "Hg (Jun 17, 6:00 AM)
Low73 °F (Jun 17, 2:00 AM)44% (Jun 23, 3:00 PM)29.80 "Hg (Jun 19, 3:00 PM)
Average83 °F73%29.95 "Hg
* Reported Jun 17 2:00 AM — Jul 2 2:00 AM, Koudougou, Weather by CustomWeather, © 2016

Note: Actual official high and low records may vary slightly from our data, if they occured in-between our weather recording intervals... More about our weather records

Advertising

Koudougou Weather History for the Previous 24 Hours

Scroll right to see more
 ConditionsComfort  
Time TempWeatherWind HumidityBarometerVisibility
2:00 AM
Sat, Jul 2
82 °FPassing clouds.5 mph79%29.98 "HgN/A
1:00 AM82 °FThunderstorms. Passing clouds.3 mph79%29.98 "HgN/A
11:00 PM
Fri, Jul 1
82 °FThunderstorms. Passing clouds.2 mph74%30.04 "HgN/A
10:00 PM82 °FThunderstorms. Passing clouds.7 mph74%30.01 "HgN/A
9:00 PM82 °FThunderstorms. Passing clouds.12 mph74%30.01 "HgN/A
8:00 PM88 °FThunderstorms. Passing clouds.7 mph62%29.95 "Hg5 mi
7:00 PM90 °FThunderstorms. Passing clouds.6 mph59%29.92 "Hg5 mi
6:00 PM91 °FScattered clouds.5 mph56%29.92 "HgN/A
5:00 PM93 °FScattered clouds.5 mph49%29.89 "HgN/A
4:00 PM95 °FScattered clouds.5 mph50%29.92 "HgN/A
3:00 PM95 °FScattered clouds.6 mph50%29.95 "HgN/A
2:00 PM91 °FScattered clouds.8 mph56%29.98 "HgN/A
1:00 PM91 °FScattered clouds.7 mph56%29.98 "HgN/A
12:00 PM90 °FScattered clouds.5 mph59%30.01 "HgN/A
11:00 AM88 °FScattered clouds.7 mph66%30.01 "HgN/A
10:00 AM86 °FScattered clouds.9 mph70%30.04 "HgN/A
9:00 AM84 °FScattered clouds.10 mph74%30.04 "HgN/A
8:00 AM82 °FSunny.7 mph79%30.04 "Hg10 mi
7:00 AM79 °FSunny.6 mph94%30.01 "Hg10 mi
6:00 AM79 °FSunny.2 mph94%30.01 "Hg10 mi
5:00 AM79 °FClear.5 mph89%29.98 "Hg10 mi
4:00 AM81 °FClear.3 mph89%29.98 "Hg10 mi
3:00 AM81 °FClear.6 mph84%29.98 "Hg10 mi
Weather by CustomWeather, © 2016

See weather overviewHow to use our weather pages